Location: Bacea
(45.9500°N, 22.6667°E)
Time: 00:40:46
(UTC+00:00)

Cosmos 489 Rocket - Visible Passes

Search period start: 22 May 2022 00:00
Search period end: 01 June 2022 00:00
Orbit: 953 x 982 km, 74.0° (Epoch: 21 May)

Date Brightness Start Highest point End Pass type
(mag) Time Alt. Az. Time Alt. Az. Time Alt. Az.
22 May 6.4 02:00:20 10° N 02:06:01 35° ENE 02:11:41 10° ESE visible
22 May 7.6 19:06:55 10° W 19:11:04 18° NW 19:15:13 10° N visible
23 May 7.6 00:38:44 10° NNE 00:41:37 13° NE 00:44:30 10° ENE visible
23 May 8.0 19:33:04 10° WNW 19:35:04 11° NW 19:37:04 10° NNW visible
24 May 7.2 01:00:57 10° N 01:05:33 21° NE 01:10:08 10° E visible
25 May 6.4 01:23:40 10° N 01:29:15 33° ENE 01:34:49 10° ESE visible
26 May 7.5 00:02:16 10° NNE 00:04:46 12° NE 00:07:17 10° ENE visible
26 May 5.4 01:46:38 10° NNW 01:52:45 54° ENE 01:58:51 10° SE visible
26 May 7.8 18:55:44 10° WNW 18:58:12 12° NW 19:00:41 10° NNW visible
27 May 7.2 00:24:20 10° N 00:28:44 20° NE 00:33:08 10° E visible
28 May 6.4 00:47:00 10° N 00:52:27 31° NE 00:57:55 10° ESE visible
28 May 7.5 23:25:51 10° NNE 23:27:55 12° NE 23:29:59 10° ENE visible
29 May 5.5 01:09:56 10° NNW 01:16:00 50° ENE 01:22:04 10° SE visible
29 May 7.1 23:47:43 10° N 23:51:55 18° NE 23:56:06 10° E visible
30 May 4.6 01:33:03 10° NNW 01:39:20 84° ENE 01:45:37 10° SSE visible
31 May 6.4 00:10:20 10° N 00:15:41 29° NE 00:21:01 10° ESE visible
31 May 4.6 01:56:23 10° NNW 02:02:28 57° WSW 02:08:35 10° S visible
31 May 7.4 22:49:34 10° NNE 22:51:03 11° NE 22:52:33 10° NE visible
